Flag for China Weather past 2 weeks in Kashgar, Xinjiang, China

Now
79 °F

Duststorm.


Feels Like: 79 °F
Forecast: 73 / 90 °F
Wind: 13 mph from Northeast

Location: Kashi Airport

Current Time: Jul 8, 2015 at 4:37:59 AM

Latest Report: Jul 8, 2015 at 4:00 AM


Visibility: 2 mi

Pressure: 29.89 "Hg (25.77 "Hg at 1298m altitude)

Humidity: 34%

Dew point: 48 °F

Location of KashgarLocation

Historic Weather in Kashgar — Graph

°F

Kashgar temperature yesterday

Maximum temperature yesterday: 91 °F (at 6:00 PM)
Minimum temperature yesterday: 75 °F (at 7:00 AM)
Average temperature yesterday: 83 °F

Past Weeks' High & Low Weather Summary

 TemperatureHumidityPressure
High97 °F (Jul 5, 3:00 PM)94% (Jun 25, 9:00 AM)30.07 "Hg (Jun 25, 9:00 AM)
Low57 °F (Jun 25, 1:00 PM)7% (Jul 5, 7:00 PM)29.62 "Hg (Jun 26, 6:00 PM)
Average77 °F38%29.85 "Hg
* Reported Jun 23 3:00 AM — Jul 8 3:00 AM, Kashgar, Weather by CustomWeather, © 2015

Note: Actual official high and low records may vary slightly from our data, if they occured in-between our weather recording intervals... More about our weather records

Advertising

Kashgar weather history for previous 24 hours

 ConditionsComfort  
Time TempWeatherWind HumidityBarometerVisibility
3:00 AM
Wed, Jul 8
79 °FPleasantly warm.13 mph32%29.89 "Hg4 mi
2:00 AM81 °FClear.10 mph28%29.89 "Hg10 mi
1:00 AM82 °FPassing clouds.6 mph26%29.89 "HgN/A
12:00 AM84 °FClear.3 mph22%29.86 "Hg10 mi
11:00 PM
Tue, Jul 7
86 °FPassing clouds.3 mph22%29.86 "HgN/A
10:00 PM88 °FSunny.6 mph19%29.83 "Hg10 mi
9:00 PM88 °FPassing clouds.6 mph19%29.83 "HgN/A
8:00 PM90 °FPassing clouds.8 mph17%29.83 "HgN/A
7:00 PM90 °FPassing clouds.8 mph17%29.83 "HgN/A
6:00 PM91 °FPassing clouds.8 mph17%29.83 "HgN/A
5:00 PM90 °FPassing clouds.8 mph17%29.86 "HgN/A
4:00 PM90 °FClear.8 mph16%29.86 "Hg5 mi
3:00 PM88 °FClear.8 mph19%29.89 "Hg5 mi
2:00 PM88 °FClear.6 mph19%29.92 "Hg5 mi
1:00 PM84 °FPassing clouds.10 mph20%29.92 "HgN/A
12:00 PM82 °FPassing clouds.10 mph23%29.92 "HgN/A
11:00 AM81 °FSunny.8 mph23%29.92 "Hg10 mi
10:00 AM75 °FSunny.10 mph27%29.92 "Hg10 mi
9:00 AM75 °FPassing clouds.22 mph27%29.89 "HgN/A
8:00 AM75 °FPassing clouds.20 mph27%29.86 "HgN/A
7:00 AM75 °FPassing clouds.15 mph31%29.83 "HgN/A
6:00 AM77 °FPassing clouds.6 mph22%29.80 "HgN/A
5:00 AM81 °FPassing clouds.6 mph18%29.80 "HgN/A
4:00 AM79 °FClear.8 mph23%29.80 "Hg10 mi
Weather by CustomWeather, © 2015

See weather overviewHow to use our weather pages